Regional Weather Roundup
Issued by NWS

Home | Current Version | Previous Version | Graphics & Text | Print | Product List | Glossary On
Versions: 1 2 3 4 5 6 7 8 9 10 11 12 13 14 15 16 17 18 19 20 21 22 23 24 25 26 27 28 29 30 31 32 33 34 35 36 37 38 39 40 41 42 43 44 45 46 47 48 49 50
000
ASUS45 KBOI 010110
RWRID

IDAHO REGIONAL WEATHER ROUNDUP
NATIONAL WEATHER SERVICE BOISE ID
700 PM MDT SUN APR 30 2017

NOTE: "FAIR" INDICATES FEW OR NO CLOUDS BELOW 12000 FEET
WITH NO SIGNIFICANT WEATHER AND/OR OBSTRUCTIONS TO VISIBILITY

IDZ012-014-010200-
SOUTHWEST IDAHO


CITY           SKY/WX    TMP DP  RH WIND       PRES   REMARKS
BOISE          PTSUNNY   63  37  38 N12       30.04F
CALDWELL       CLOUDY    63  42  46 N3        30.04S
MOUNTAIN HOME  SUNNY     65  37  35 NW20      30.03F
$$

IDZ016-017-010200-
SOUTHCENTRAL IDAHO


CITY           SKY/WX    TMP DP  RH WIND       PRES   REMARKS
BURLEY         SUNNY     58  36  43 W14G26    30.03S
JEROME         SUNNY     59  37  44 W20       30.06R
TWIN FALLS     PTSUNNY   59  39  47 W18       30.07R
$$

IDZ019>023-010200-
SOUTHEAST IDAHO


CITY           SKY/WX    TMP DP  RH WIND       PRES   REMARKS
IDAHO FALLS    CLOUDY    56  37  49 SW15      29.99F
POCATELLO      MOSUNNY   58  37  45 W26       30.01F
REXBURG        CLOUDY    54  34  46 SW13      29.98S
$$

IDZ006-010-011-018-031-032-010200-
CENTRAL IDAHO MOUNTAINS


CITY           SKY/WX    TMP DP  RH WIND       PRES   REMARKS
MCCALL         LGT RAIN  46  34  62 NE5       30.07S
HAILEY         PTSUNNY   54  28  37 W12G25    30.05R
STANLEY          N/A     43  30  60 N9        30.10S
SALMON         CLOUDY   N/A N/A N/A MISG        N/A
CHALLIS        CLOUDY    54  26  34 W13       30.02S
$$

IDZ002-004-006-007-026-010200-
NORTHERN IDAHO


CITY           SKY/WX    TMP DP  RH WIND       PRES   REMARKS
LEWISTON       PTSUNNY   60  32  34 W22G32    30.07R
LOWELL           N/A     57  44  62 CALM      30.06R
COEUR D`ALENE  LGT RAIN  53  41  63 W8        30.03
MULLAN PASS    CLOUDY    35  30  82 SW8G17    30.04R WCI  29
$$



USA.gov is the U.S. government's official web portal to all federal, state and local government web resources and services.